Probability
0 0 0 0 0 0 0 0 0 0 0 0 0 0 0 0 0 0 0 0 0 0 0 0 0 0 0 0 0 0 0 0 0 0 0 0 0 0 0 0 0 0 0 0 0 0 0 0 0
0 0 0 0 0 0 0 0 0 0 0 0 0 0 0 0 0 0 0 0 0 0 0 0 0 0 0 0 0 0 0 0 0 0 0 0 0 0 0 0 0 0 0 0 0 0 0 0 0
0 0 0 0 0 0 0 0 0 0 0 0 0 0 0 0 0 0 0 0 0 0 0 0 0 0 0 0 0 0 0 0 0 0 0 0 0 0 0 0 0 0 0 0 0 0 0 0 0
0 0 0 0 0 0 0 0 0 0 0 0 0 0 0 0 0 0 0 0 0 0 0 0 0 0 0 0 0 0 0 0 0 0 0 0 0 0 0 0 0 0 0 0 0 0 0 0 0
0 0 0 0 0 0 0 0 0 0 0 0 0 0 0 0 0 0 0 0 0 0 0 0 0 0 0 0 0 0 0 0 0 0 0 0 0 0 0 0 0 0 0 0 0 0 0 0 0
0 0 0 0 0 0 0 0 0 0 0 0 0 0 0 0 0 0 0 0 0 0 0 0 0 0 0 0 0 0 0 0 0 0 0 0 0 0 0 0 0 0 0 0 0 0 0 0 0
0 0 0 0 0 0 0 0 0 0 0 0 0 0 0 0 0 0 0 0 0 0 0 0 0 0 0 0 0 0 0 0 0 0 0 0 0 0 0 0 0 0 0 0 0 0 0 0 0
0 0 0 0 0 0 0 0 0 0 0 0 0 0 0 0 0 0 0 0 0 0 0 0 0 0 0 0 0 0 0 0 0 0 0 0 0 0 0 0 0 0 0 0 0 0 0 0 0
0 0 0 0 0 0 0 0 0 0 0 0 0 0 0 0 0 0 0 0 0 0 0 0 0 0 0 0 0 0 0 0 0 0 0 0 0 0 0 0 0 0 0 0 0 0 0 0 0
0 0 0 0 0 0 0 0 0 0 0 0 0 0 0 0 0 0 0 0 0 0 0 0 0 0 0 0 0 0 0 0 0 0 0 0 0 0 0 0 0 0 0 0 0 0 0 0 0
0 0 0 0 0 0 0 0 0 0 0 0 0 0 0 0 0 0 0 0 0 0 0 0 0 0 0 0 0 0 0 0 0 0 0 0 0 0 0 0 0 0 0 0 0 0 0 0 0
0 0 0 0 0 0 0 0 0 0 0 0 0 0 0 0 0 0 0 0 0 0 0 0 0 0 0 0 0 0 0 0 0 0 0 0 0 0 0 0 0 0 0 0 0 0 0 0 0
0 0 0 0 0 0 0 0 0 0 0 0 0 0 0 0 0 0 0 0 0 0 0 0 0 0 0 0 0 0 0 0 0 0 0 0 0 0 0 0 0 0 0 0 0 0 0 0 0
0 0 0 0 0 0 0 0 0 0 0 0 0 0 0 0 0 0 0 0 0 0 0 0 0 0 0 0 0 0 0 0 0 0 0 0 0 0 0 0 0 0 0 0 0 0 0 0 0
0 0 0 0 0 0 0 0 0 0 0 0 0 0 0 0 0 0 0 0 0 0 0 0 0 0 0 0 0 0 0 0 0 0 0 0 0 0 0 0 0 0 0 0 0 0 0 0 0
0 0 0 0 0 0 0 0 0 0 0 0 0 0 0 0 0 0 0 0 0 0 0 0 0 0 0 0 0 0 0 0 0 0 0 0 0 0 0 0 0 0 0 0 0 0 0 0 0
0 0 0 0 0 0 0 0 0 0 0 0 0 0 0 0 0 0 0 0 0 0 0 0 0 0 0 0 0 0 0 0 0 0 0 0 0 0 0 0 0 0 0 0 0 0 0 0 0
0 0 0 0 0 0 0 0 0 0 0 0 0 0 0 0 0 0 0 0 0 0 0 0 0 0 0 0 0 0 0 0 0 0 0 0 0 0 0 0 0 0 0 0 0 0 0 0 0
0 0 0 0 0 0 0 0 0 0 0 0 0 0 0 0 0 0 0 0 0 0 0 0 0 0 0 0 0 0 0 0 0 0 0 0 0 0 0 0 0 0 0 0 0 0 0 0 0
0 0 0 0 0 0 0 0 0 0 0 0 0 0 0 0 0 0 0 0 0 0 0 0 0 0 0 0 0 0 0 0 0 0 0 0 0 0 0 0 0 0 0 0 0 0 0 0 0
0 0 0 0 0 0 0 0 0 0 0 0 0 0 0 0 0 0 0 0 0 0 0 0 0 0 0 0 0 0 0 0 0 0 0 0 0 0 0 0 0 0 0 0 0 0 0 0 0
0 0 0 0 0 0 0 0 0 0 0 0 0 0 0 0 0 0 0 0 0 0 0 0 0 0 0 0 0 0 0 0 0 0 0 0 0 0 0 0 0 0 0 0 0 0 0 0 0
0 0 0 0 0 0 0 0 0 0 0 0 0 0 0 0 0 0 0 0 0 0 0 0 0 0 0 0 0 0 0 0 0 0 0 0 0 0 0 0 0 0 0 0 0 0 0 0 0
0 0 0 0 0 0 0 0 0 0 0 0 0 0 0 0 0 0 0 0 0 0 0 0 0 0 0 0 0 0 0 0 0 0 0 0 0 0 0 0 0 0 0 0 0 0 0 0 0
0 0 0 0 0 0 0 0 0 0 0 0 0 0 0 0 0 0 0 0 0 0 0 0 0 0 0 0 0 0 0 0 0 0 0 0 0 0 0 0 0 0 0 0 0 0 0 0 0
0 0 0 0 0 0 0 0 0 0 0 0 0 0 0 0 0 0 0 0 0 0 0 0 0 0 0 0 0 0 0 0 0 0 0 0 0 0 0 0 0 0 0 0 0 0 0 0 0
0 0 0 0 0 0 0 0 0 0 0 0 0 0 0 0 0 0 0 0 0 0 0 0 0 0 0 0 0 0 0 0 0 0 0 0 0 0 0 0 0 0 0 0 0 0 0 0 0
0 0 0 0 0 0 0 0 0 0 0 0 0 0 0 0 0 0 0 0 0 0 0 0 0 0 0 0 0 0 0 0 0 0 0 0 0 0 0 0 0 0 0 0 0 0 0 0 0
0 0 0 0 0 0 0 0 0 0 0 0 0 0 0 0 0 0 0 0 0 0 0 0 0 0 0 0 0 0 0 0 0 0 0 0 0 0 0 0 0 0 0 0 0 0 0 0 0
0 0 0 0 0 0 0 0 0 0 0 0 0 0 0 0 0 0 0 0 0 0 0 0 0 0 0 0 0 0 0 0 0 0 0 0 0 0 0 0 0 0 0 0 0 0 0 0 0
Wind_Speed
12 9 5 2 3 2 5 4 4 4 5 6 4 3 7 9 7 6 3 4 7 14 14 12 12 12 11 11 11 10 11 12 13 13 13 14 14 14 14 14 14 14 14 14 14 13 13 12 12
8 6 3 3 3 2 5 5 6 9 6 2 2 1 6 8 7 7 5 3 6 13 14 12 12 12 12 11 11 10 11 12 13 13 14 14 14 14 14 14 14 15 15 15 14 14 13 12 12
7 5 3 3 3 3 6 6 8 7 4 1 2 4 6 5 6 5 5 4 5 10 12 12 12 12 12 11 11 10 10 11 12 13 14 14 14 14 14 15 15 15 15 15 15 14 14 13 13
4 3 3 4 1 6 7 7 6 7 5 1 1 7 6 6 4 5 5 4 6 9 12 12 12 11 11 11 10 10 10 11 12 14 14 14 14 14 14 15 15 15 15 15 15 14 14 14 14
3 3 3 3 3 5 6 6 2 2 5 4 1 6 6 4 6 6 5 5 6 7 11 12 10 10 11 10 10 10 10 11 12 14 15 14 14 14 14 14 15 15 15 15 15 14 14 14 14
3 3 3 3 5 5 5 4 2 2 4 3 0 5 6 6 5 4 5 4 6 7 9 10 8 9 9 10 10 10 10 11 12 13 15 15 14 14 14 14 14 14 15 14 14 14 14 13 13
3 3 5 4 4 4 5 3 2 2 4 4 2 3 7 6 3 3 5 5 7 7 7 8 6 7 8 8 9 10 10 10 11 13 14 13 13 13 13 13 13 13 14 14 13 13 13 13 12
3 3 4 3 0 4 6 4 2 4 3 4 3 2 7 4 2 4 5 7 7 5 4 5 5 5 6 6 8 9 10 11 11 12 13 12 12 11 11 10 12 12 12 12 12 11 11 11 11
3 2 4 2 1 2 7 4 4 2 1 3 4 5 4 3 3 5 5 6 6 4 3 2 2 2 4 5 8 8 9 10 11 11 13 11 7 7 6 9 10 11 11 10 9 9 7 6 7
2 2 2 5 5 3 4 2 3 4 4 4 5 6 5 3 3 4 4 5 5 4 3 1 1 1 1 3 5 5 5 7 6 7 8 5 5 5 7 9 9 9 8 8 6 5 5 4 3
2 3 3 3 5 5 1 1 0 2 4 1 4 7 5 4 2 2 3 4 3 2 3 2 2 2 1 1 2 2 2 3 4 6 6 5 5 5 5 3 4 4 4 3 2 2 3 3 3
3 3 2 2 3 2 2 2 3 4 1 4 6 5 5 4 4 4 5 5 4 3 2 1 2 2 2 2 2 3 3 3 3 4 4 4 4 4 4 3 3 2 2 2 2 2 3 3 3
5 3 1 1 2 3 4 5 5 4 3 5 5 4 5 5 5 5 4 4 4 4 3 0 2 3 3 3 3 4 5 5 5 5 4 5 5 5 4 3 3 3 3 3 3 3 3 3 3
4 5 4 4 6 5 5 7 6 6 6 6 5 4 4 4 3 4 4 3 4 4 4 3 2 3 4 5 5 5 6 7 7 7 7 7 6 5 5 5 5 4 4 4 3 4 3 3 2
3 5 7 8 9 5 4 7 10 8 7 6 6 5 5 4 3 4 4 3 3 3 3 3 4 6 8 8 8 7 7 8 8 7 8 9 8 7 6 5 5 4 4 5 4 5 4 4 4
4 4 5 6 8 6 5 9 4 7 8 7 7 7 7 5 5 5 4 3 3 3 3 4 6 9 10 10 10 8 8 8 8 7 8 10 9 8 7 6 5 5 5 4 4 4 4 5 5
6 6 8 6 7 7 7 7 3 5 7 7 8 8 8 7 6 5 4 3 2 3 4 6 8 10 11 11 11 11 9 9 8 7 7 8 10 9 8 7 6 6 5 5 5 4 4 5 6
6 8 8 7 8 8 8 9 5 8 8 8 8 8 8 8 7 7 5 4 3 4 5 8 9 10 11 10 10 9 10 8 8 8 8 9 9 9 8 7 8 7 6 6 6 5 6 5 6
9 10 11 8 1 6 9 11 9 9 9 10 9 9 9 8 9 8 6 5 4 5 6 7 9 8 8 7 7 8 7 7 7 8 10 10 10 10 8 7 7 7 7 7 8 5 6 7 6
11 12 12 10 5 5 7 11 10 9 12 12 12 11 11 10 9 8 7 6 5 6 6 7 8 7 6 6 7 7 8 8 7 6 9 10 10 9 9 8 7 7 6 8 9 7 5 6 8
11 12 11 10 5 4 5 11 13 14 14 12 11 10 11 13 13 11 9 7 6 6 6 7 8 9 9 10 10 10 8 7 7 8 7 9 9 9 9 9 7 7 7 6 7 7 7 5 6
11 8 9 9 7 6 7 12 8 10 11 12 12 10 9 10 12 11 10 9 8 7 7 8 9 10 9 9 10 12 10 10 7 6 7 8 9 9 8 8 8 7 6 7 6 6 5 5 4
5 3 2 4 6 10 7 14 10 8 10 13 13 11 9 10 12 11 10 9 9 8 7 8 9 9 8 7 9 12 11 10 8 8 9 8 7 8 8 7 7 7 6 6 6 6 6 5 4
6 4 1 1 3 11 10 14 14 9 12 10 13 12 10 11 12 11 9 10 9 8 7 8 9 9 8 9 10 11 13 12 11 9 8 6 5 5 7 7 7 7 5 6 6 6 6 5 5
6 6 2 4 6 10 8 12 10 2 2 4 10 12 12 12 12 12 11 10 10 10 9 9 10 10 9 10 10 10 11 11 10 9 8 7 5 5 6 6 6 5 5 5 5 5 5 5 5
12 11 9 8 7 5 5 11 6 3 3 3 7 11 12 12 11 12 11 10 10 10 10 10 10 10 10 10 10 9 9 7 7 8 8 7 5 5 6 6 6 6 6 5 5 4 4 4 4
9 11 9 3 2 4 8 8 4 2 3 4 8 11 12 12 12 12 11 10 10 11 10 10 11 10 10 10 10 9 9 8 9 9 8 6 5 5 6 6 6 6 5 5 5 3 4 4 3
6 7 5 7 6 7 9 10 9 9 11 9 11 13 13 13 13 13 12 12 11 10 10 10 10 11 10 9 9 9 9 9 9 8 8 7 6 6 6 6 5 5 5 5 4 3 3 4 3
10 8 8 7 6 5 7 8 2 9 12 14 15 14 15 15 14 13 11 11 11 10 10 10 10 10 10 9 9 10 9 9 9 8 8 7 7 6 6 5 5 4 4 4 3 3 3 4 4
12 14 13 9 8 6 6 9 1 3 2 9 12 12 13 13 12 12 12 11 11 11 11 10 10 10 10 10 10 10 9 9 9 8 8 7 7 6 6 5 4 4 3 3 3 3 4 4 4
Wind_Direction
293 274 274 278 268 229 87 88 87 93 73 59 42 4 59 48 41 84 97 79 115 126 135 144 138 137 135 133 130 127 124 120 113 106 98 91 85 80 74 69 65 63 62 61 60 58 56 56 59
301 307 277 250 261 175 104 109 85 68 75 93 132 246 97 81 81 99 96 81 121 129 139 148 142 142 140 137 134 132 128 122 117 110 101 94 88 82 77 71 67 64 62 62 61 58 55 55 58
277 271 272 258 283 37 101 90 93 97 92 13 116 46 49 50 62 75 95 122 125 128 138 139 147 145 143 141 139 137 132 128 122 115 107 99 92 86 81 75 69 65 63 61 60 58 55 53 56
289 246 243 260 52 45 79 96 106 130 123 51 335 100 79 37 46 84 117 133 123 128 131 139 150 148 146 145 144 142 136 131 126 120 112 105 98 92 86 80 74 68 64 62 60 58 54 53 53
231 268 248 256 93 86 71 80 92 141 136 134 266 100 87 75 80 102 116 116 119 126 126 143 151 151 150 150 147 143 139 135 130 124 117 112 105 99 92 85 79 73 67 63 60 58 55 53 51
272 269 269 234 129 112 115 115 178 175 103 106 295 106 98 82 75 96 112 116 116 114 121 139 145 152 156 156 153 147 143 140 136 130 124 120 113 106 100 93 86 79 73 67 62 59 56 54 49
316 303 293 311 113 139 124 132 225 187 144 112 360 95 116 94 72 96 105 86 88 99 115 136 154 161 163 162 160 153 149 147 142 136 129 124 118 113 106 100 94 88 81 74 68 63 59 55 49
324 300 275 292 196 157 130 144 42 354 82 76 7 37 113 112 125 108 107 95 80 79 95 130 158 170 170 167 166 160 152 147 143 139 133 129 123 119 113 107 101 95 89 83 76 72 69 63 55
296 283 275 302 11 99 123 165 129 30 17 100 67 68 89 116 137 133 127 114 101 92 81 92 142 171 170 164 161 160 155 151 145 142 140 137 133 126 112 107 105 102 99 92 84 78 76 78 66
274 280 337 25 20 20 124 200 154 175 209 167 127 107 106 109 126 148 147 136 128 129 125 134 180 179 156 144 151 160 159 155 156 148 151 145 127 113 107 101 102 106 110 105 95 82 61 57 45
261 275 14 41 35 1 19 227 248 260 245 238 151 138 118 105 91 81 83 79 77 109 128 161 185 179 175 121 131 129 130 136 136 135 143 127 114 112 106 106 105 108 124 107 103 70 53 56 47
294 268 341 12 72 340 292 271 249 234 204 79 64 96 116 117 103 65 55 51 35 36 94 135 160 166 162 124 99 94 94 93 91 97 111 115 110 104 100 91 84 72 56 60 58 56 54 48 45
245 272 173 253 152 252 285 276 269 247 149 115 104 104 114 112 107 91 68 56 35 14 8 39 158 158 141 109 85 79 81 81 77 70 70 90 101 100 93 79 66 51 40 44 47 46 39 33 24
345 329 283 221 209 212 233 255 246 231 158 145 147 146 127 112 95 105 88 61 43 12 347 352 111 125 108 97 89 80 77 75 70 62 57 67 82 91 87 75 59 43 31 31 35 34 26 22 6
316 284 268 231 205 205 201 255 231 214 156 168 175 160 141 126 116 90 77 57 36 7 357 20 77 94 98 92 85 79 75 75 71 63 57 61 70 78 80 74 61 43 31 31 31 22 19 19 3
228 251 257 231 180 139 165 256 233 148 156 189 188 171 165 152 135 102 87 70 42 32 39 58 80 88 90 88 85 81 76 75 72 66 63 63 67 72 75 71 59 43 38 35 38 24 18 16 359
220 241 249 246 162 150 196 256 142 148 179 202 193 179 172 160 146 123 107 92 69 64 79 86 91 95 96 93 89 84 78 74 73 69 67 65 67 68 72 66 56 47 43 35 36 35 27 14 352
225 229 244 244 176 176 207 245 212 190 199 212 199 186 180 172 157 132 118 108 97 91 96 102 103 106 106 101 95 88 77 73 72 71 69 68 67 67 70 67 57 50 47 38 29 31 29 16 344
276 293 295 292 123 186 229 246 242 202 205 218 209 191 186 171 137 130 130 130 123 112 111 114 117 121 120 116 108 99 90 83 77 72 71 69 69 67 68 69 62 56 54 45 33 27 27 19 358
246 260 268 275 238 217 255 260 259 229 216 214 212 199 185 161 144 144 143 141 138 128 124 123 122 118 110 106 105 104 106 91 84 77 70 66 64 64 70 67 63 56 57 48 37 33 31 26 20
245 245 254 263 281 225 267 264 238 237 226 216 213 202 184 170 162 156 153 147 139 135 132 127 120 115 113 114 113 111 102 97 86 78 73 66 66 64 65 64 64 58 57 53 43 35 41 34 17
248 240 244 254 269 258 224 277 238 232 221 214 210 205 189 163 154 153 153 148 141 132 125 122 120 120 122 126 127 126 121 114 108 101 89 75 66 64 63 63 62 61 57 53 44 40 39 46 29
229 31 288 252 255 266 259 278 262 218 224 221 210 199 180 152 148 151 150 142 135 131 127 123 121 122 126 121 119 116 114 114 113 107 99 88 74 67 65 63 61 60 56 52 45 40 38 39 42
131 93 40 293 265 261 222 243 271 205 218 210 199 185 164 146 143 141 134 131 132 130 127 127 127 122 119 115 113 118 123 125 122 117 110 100 88 73 66 66 61 58 54 48 43 42 40 34 31
145 150 217 236 225 247 191 222 257 194 183 189 176 165 156 148 146 144 143 145 145 143 139 136 133 126 119 115 115 119 121 122 122 121 115 110 98 84 72 71 67 62 54 48 43 46 40 33 25
191 183 186 214 232 260 220 234 252 114 59 61 130 146 149 151 151 152 154 154 152 149 146 142 137 129 124 121 119 116 115 113 110 108 109 106 104 98 89 80 73 66 55 48 43 47 37 26 16
182 217 219 251 300 285 254 257 252 152 197 168 152 153 162 162 158 157 157 156 155 153 151 146 139 132 129 126 121 115 111 108 108 106 103 104 103 99 87 80 74 66 57 46 43 44 32 17 11
231 177 168 198 219 241 256 237 232 198 218 193 177 174 172 167 164 163 161 159 157 154 147 142 139 136 132 129 126 121 114 112 111 108 107 108 103 97 91 82 76 68 58 47 41 32 20 11 353
194 206 191 186 209 217 262 251 251 189 193 189 189 182 176 173 170 166 162 157 154 151 148 146 144 139 137 133 126 122 119 116 114 112 112 112 106 100 94 88 81 72 61 47 38 21 10 1 344
209 200 192 190 214 218 246 261 30 53 150 174 177 174 171 169 167 163 160 157 158 159 156 154 150 146 143 137 131 128 126 123 119 117 115 112 107 101 97 91 85 75 63 45 31 10 4 350 336